Location: Unspecified
(35.6961°N, 0.0000°E)
Time: 21:16:35
(UTC+00:00)

S-56A Canister/Altair - Pass Details

Date: 03 June 2019
Orbit: 633 x 2499 km, 38.9° (Epoch: 16 June)

Event Time Altitude Azimuth Distance (km) Brightness Sun altitude
Rises 04:32:58 0° 283° (WNW) 3,797 10.6 -3.0°
Reaches altitude 10° 04:35:34 10° 273° (W) 3,062 10.1 -2.5°
Maximum altitude 04:42:19 33° 212° (SSW) 2,286 9.5 -1.3°
Drops below altitude 10° 04:51:51 10° 154° (SSE) 4,350 11.4 0.4°
Sets 04:56:22 0° 146° (SE) 5,626 12.0 1.2°
